Find Ekspress AM-11

NORAD ID: 28234 Int'l Des: 2004-015 Owner: KS Country: RU operational
HEOCIRCULAR

Live Position

Loading 3D Globe...

About Ekspress AM-11

Description loading...

Upcoming Passes

Passes for default location (London). Set your location on the main map for personalized predictions.

Altitude History

Loading altitude history...

Two-Line Element Set

1 28234U 04015A 26110.56844935 -.00000210 00000-0 00000-0 0 9997
2 28234 12.9194 23.7414 0007551 298.8006 262.5025 0.99239673 79847
Epoch: Apr 20, 2026 • Age: 8 hours

Current Status

Altitude 36050.0 km
Velocity 3.07 km/s
Sub-Earth Point -7.87°S, 171.24°E
Launch Date Apr 26, 2004
Age 21.9 years
Type other

Technical Details

Classification Payload
Mass 2543.00 kg
Dry Mass 2200.00 kg
Total Mass 2543.00 kg
Length 2.00 m
Diameter 2.00 m
Span 27.00 m
Shape Cyl + 2 Pan
Manufacturer NPOPMR
Bus Type Ekspress
Phase Status In Orbit
Owner/State KS/RU

Most Searched